User: anonymous   Login
Location: Contre
(49.7477°N, 2.0963°E)
Time: 00:21:21
(UTC+00:00)
Language:

Cosmos 2315 Rocket - Orbit

View from above orbital plane
View from above orbital plane
View from above satellite
View from above satellite

Ground track
Ground track

The orbit data is extracted from the following two-line orbital elements,

1 23604U 95032B   23156.57837361 -.00000017  00000-0 -33322-4 0  9998
2 23604  82.9026 335.2380 0022913 293.0059  66.8680 13.74353092400132
Epoch (UTC): 05 June 2023 13:52:51
Eccentricity: 0.0022913
inclination: 82.9026°
perigee height: 967 km
apogee height: 1001 km
right ascension of ascending node: 335.2380°
argument of perigee: 293.0059°
revolutions per day: 13.74353092
mean anomaly at epoch: 66.8680°
orbit number at epoch: 40013

The dashed part of the orbit path shows where the satellite is in the earth's shadow,  

DLR